DELTA 1 DEB, 7039

Orbit data source: Space-Track

DELTA 1 DEB, 7039 is space debris in SSO originally from a launch on Tue, 06 Nov 1973 UTC launched from the Air Force Western Test Range (AFWTR). Debris objects in space refer to the collection of defunct objects orbiting the Earth. Examples of debris include non-operational satellites, rocket bodies, and fragments generated from explosions, collisions, or faulty payload assembly.

Loading next visibility...
Identifier
7039, 1973-086AF
Orbit
SSO
Country
Flag of USUS
Related business
Manufacturer
Unknown
Mission
Spacecraft
Bus & Motor
Unknown
Mass
Unknown
Launch date (UTC)
1973-11-06 (52 years ago)
Launch vehicle
Unknown
Launch site
Air Force Western Test Range (AFWTR)
Object type
Payload
Rocket body
Debris
Shape & HBR
Unknown
Radar Cross Section
Medium (>0.1 m² and <1 m²)

Expand to show TLE details & history
Last TLE update: 23 hours ago

TLE from 23 hours ago
0 DELTA 1 DEB
1 07039U 73086AF  25260.90542881  .00000050  00000-0  63129-3 0  9994
2 07039 102.5269 244.6788 0130558  78.0905 339.9286 12.49561196363103
Epoch: 2025-09-17T21:43Z
TLE epoch observation values (Epoch: 2025-09-17T21:43:49.049Z)
Latitude
55.51215°
Longitude
-97.12347°
Altitude
1,379.264 km
Speed
7.219 km/s
True Right ascension
15h 03m 37s
True Declination
55° 21' 52"
Sunlit
Object was in daylight at epoch
Visualization orbit readout
Latitude
Unknown
Longitude
Unknown
Altitude
Unknown
Speed
Unknown
Apparent Right ascension
Unknown
Apparent Declination
Unknown
Sunlit
N/A
Visualization observer readout
Local Sidereal Time
13:32:44
Azimuth
Unknown
Elevation
Unknown
Doppler factor
Unknown
Orbital elements
Apogee altitude
1,566.309 km
Perigee altitude
1,361.54 km
Semi-major axis
7,842.062 km
Eccentricity
0.01306
Inclination
102.5269°
RAAN
244.6788°
Arg. of periapsis
78.0905°
True anomaly
339.40718°
Mean anomaly
339.9286°
Eccentric anomaly
339.66869°
Mean motion
3.12534 °/min
Orbital period
115.19 mins
BSTAR
0.00063129
Loading maneuver chart data...
Computing Atmospheric mass density...
Loading historical data...
Loading historical data...
Loading historical data...
Loading historical data...
Loading historical data...
Loading historical data...
Loading historical data...

Documentation

Showing up to 5 results
|